FW2837 Weather Reports


time (UTC)temp
C
wind
direction
speed
KPH
gust
KPH
rain 1hr
cm
rain 24hr
cm
rain mn
cm
humidity
%
barometer
mb
20260505033903 12 90 0.0 0.0 0.00 0.00 0.00 88 1008.1
20260505032802 12 68 0.0 0.0 0.00 0.00 0.00 86 1008.1
20260505031702 12 68 0.0 0.0 0.00 0.00 0.00 85 1008.5
20260505025502 13 68 0.0 0.0 0.00 0.00 0.00 83 1008.5
20260505024402 13 23 0.0 0.0 0.00 0.00 0.00 83 1008.1
20260505023302 13 158 0.0 0.0 0.00 0.00 0.00 83 1007.8
20260505022202 13 248 0.0 0.0 0.00 0.00 0.00 80 1007.8
20260505020903 13 180 0.0 0.0 0.00 0.00 0.00 78 1008.1
20260505014703 14 90 0.0 0.0 0.00 0.00 0.00 75 1008.1
20260505013703 15 23 0.0 0.0 0.00 0.00 0.00 74 1008.1
20260505012603 15 113 0.0 0.0 0.00 0.00 0.00 70 1007.8
20260505011503 16 135 0.0 0.0 0.00 0.00 0.00 70 1007.8
20260505010403 16 113 0.0 0.0 0.00 0.00 0.00 68 1007.8
20260505005304 17 45 0.0 0.0 0.00 0.00 0.00 65 1007.8
20260505004203 17 45 0.0 3.2 0.00 0.00 0.00 63 1007.5
20260505003103 17 23 0.0 0.0 0.00 0.00 0.00 61 1007.5
20260505002002 18 90 1.6 3.2 0.00 0.00 0.00 60 1007.5
20260505000903 18 45 0.0 6.4 0.00 0.00 0.00 58 1007.5
20260504235903 19 113 3.2 3.2 0.00 0.00 0.00 55 1007.5
20260504234803 20 113 1.6 6.4 0.00 0.00 0.00 54 1007.5
20260504233803 20 45 0.0 9.7 0.00 0.00 0.00 50 1007.1
20260504232703 21 248 3.2 6.4 0.00 0.00 0.00 50 1007.1
20260504231603 22 270 1.6 4.8 0.00 0.00 0.00 49 1007.5
20260504225503 23 293 3.2 6.4 0.00 0.00 0.00 45 1007.5
20260504223303 24 45 3.2 9.7 0.00 0.00 0.00 43 1007.1
20260504221103 25 338 4.8 8.0 0.00 0.00 0.00 41 1006.8
20260504214902 27 293 3.2 6.4 0.00 0.00 0.00 39 1007.1
20260504212802 27 248 3.2 8.0 0.00 0.00 0.00 37 1006.8
20260504211702 28 293 3.2 6.4 0.00 0.00 0.00 37 1007.1
20260504210604 28 203 6.4 6.4 0.00 0.00 0.00 37 1007.1
20260504205602 28 23 6.4 9.7 0.00 0.00 0.00 35 1007.1
20260504204503 29 90 4.8 6.4 0.00 0.00 0.00 35 1007.1
20260504203402 28 270 3.2 8.0 0.00 0.00 0.00 37 1007.1
20260504202304 29 0 4.8 9.7 0.00 0.00 0.00 35 1007.1
20260504201203 28 90 4.8 8.0 0.00 0.00 0.00 37 1008.1
20260504200203 28 225 1.6 8.0 0.00 0.00 0.00 40 1007.5
20260504195102 29 338 4.8 8.0 0.00 0.00 0.00 37 1008.1
20260504194003 28 338 6.4 9.7 0.00 0.00 0.00 37 1008.5
20260504192903 28 315 6.4 9.7 0.00 0.00 0.00 37 1008.5
20260504190703 28 113 3.2 6.4 0.00 0.00 0.00 37 1009.1
20260504184602 28 45 8.0 14.5 0.00 0.00 0.00 37 1009.1
20260504183503 28 23 4.8 9.7 0.00 0.00 0.00 37 1009.5
20260504182403 28 315 6.4 8.0 0.00 0.00 0.00 37 1009.5
20260504181402 28 45 4.8 11.3 0.00 0.00 0.00 37 1009.5
20260504175202 28 113 4.8 8.0 0.00 0.00 0.00 37 1009.8
20260504174103 28 203 3.2 6.4 0.00 0.00 0.00 37 1009.8
20260504171903 27 293 3.2 8.0 0.00 0.00 0.00 37 1010.2
20260504170802 27 338 3.2 9.7 0.00 0.00 0.00 35 1010.2
20260504160303 26 293 8.0 8.0 0.00 0.00 0.00 35 1011.5
20260504120303 17 113 3.2 6.4 0.00 0.00 0.00 55 1013.2
20260504100503 6 135 0.0 0.0 0.00 0.00 0.00 91 1013.5
20260504081102 5 68 0.0 0.0 0.00 0.00 0.00 88 1013.2
20260504045803 4 135 0.0 0.0 0.00 0.00 0.00 86 1013.2
20260504044502 4 270 0.0 0.0 0.00 0.00 0.00 86 1013.5
20260504043402 5 270 0.0 0.0 0.00 0.00 0.00 86 1013.2
20260504041103 5 90 0.0 0.0 0.00 0.00 0.00 86 1012.9